Home   Weather   Cadiz   Past weeks

Flag for Spain Past Weather in Cadiz, Cádiz, Spain — Yesterday and Last 2 Weeks

70 °F


Feels Like: 70 °F
Forecast: 67 / 78 °F
Wind: 7 mph from East

Location: Rota Airport

Current Time: Oct 26, 2016 at 12:46:02 AM

Latest Report: Oct 26, 2016 at 12:00 AM

Visibility: 10 mi

Pressure: 30.04 "Hg

Humidity: 83%

Dew Point: 64 °F

Location of CadizLocation

Past Weather in Cadiz — Graph


Cadiz Temperature Yesterday

Maximum temperature yesterday: 77 °F (at 3:00 PM)
Minimum temperature yesterday: 66 °F (at 5:00 AM)
Average temperature yesterday: 70 °F

High & Low Weather Summary for the Past Weeks

High84 °F (Oct 18, 2:00 PM)100% (Oct 21, 1:00 AM)30.21 "Hg (Oct 21, 1:00 AM)
Low54 °F (Oct 11, 7:00 AM)41% (Oct 15, 4:00 PM)29.59 "Hg (Oct 13, 5:00 AM)
Average67 °F81%29.91 "Hg
* Reported Oct 10 11:00 PM — Oct 25 11:00 PM, Cadiz, Weather by CustomWeather, © 2016

Note: Actual official high and low records may vary slightly from our data, if they occured in-between our weather recording intervals... More about our weather records


Cadiz Weather History for the Previous 24 Hours

Scroll right to see more
Time TempWeatherWind HumidityBarometerVisibility
11:00 PM
Tue, Oct 25
70 °FClear.7 mph78%30.04 "Hg10 mi
10:00 PM72 °FPassing clouds.10 mph78%30.01 "HgN/A
9:00 PM70 °FPassing clouds.7 mph83%30.01 "HgN/A
8:00 PM70 °FPassing clouds.7 mph83%30.01 "HgN/A
7:00 PM70 °FSunny.6 mph88%29.98 "Hg10 mi
6:00 PM73 °FScattered clouds.9 mph74%29.98 "HgN/A
5:00 PM75 °FSunny.12 mph69%29.95 "Hg10 mi
4:00 PM75 °FPassing clouds.10 mph65%29.95 "HgN/A
3:00 PM77 °FPassing clouds.9 mph61%29.98 "HgN/A
2:00 PM75 °FSunny.7 mph74%29.98 "Hg10 mi
1:00 PM75 °FSunny.2 mph65%29.98 "Hg10 mi
12:00 PM75 °FSunny.2 mph65%29.98 "Hg10 mi
11:00 AM72 °FSunny.8 mph78%29.92 "Hg10 mi
10:00 AM68 °FPassing clouds.8 mph83%29.92 "HgN/A
9:00 AM66 °FThundershowers. Passing clouds.8 mph83%29.89 "HgN/A
8:00 AM66 °FThundershowers. Passing clouds.6 mph88%29.89 "HgN/A
7:00 AM68 °FClear.9 mph73%29.86 "Hg10 mi
6:00 AM66 °FClear.8 mph78%29.83 "Hg10 mi
5:00 AM66 °FClear.8 mph83%29.83 "Hg10 mi
4:00 AM68 °FThundershowers. Passing clouds.6 mph78%29.86 "HgN/A
3:00 AM68 °FThundershowers. Passing clouds.9 mph83%29.86 "HgN/A
2:00 AM68 °FClear.8 mph83%29.86 "Hg10 mi
1:00 AM68 °FPassing clouds.7 mph83%29.86 "HgN/A
12:00 AM68 °FClear.7 mph83%29.83 "Hg10 mi
Weather by CustomWeather, © 2016

See weather overviewHow to use our weather pages